Theta_e
347 344 345 346 347 344 343 348 348 347 346 343 342 342 344 343 342 342 340 344 342 341 340 338 338 336 336 336 336 336 336 335 334 334 334 334 333 333 333 334 334 334 338
348 346 347 347 347 347 348 350 349 349 344 343 341 343 341 341 342 342 341 341 341 341 340 338 338 337 336 335 336 337 337 336 335 335 334 334 333 332 331 332 332 332 331
345 346 351 350 350 347 347 350 352 350 348 344 345 342 341 339 336 341 341 341 341 341 339 339 338 337 337 334 332 332 333 335 336 336 336 335 334 333 332 330 330 330 330
343 350 349 348 351 349 349 347 352 350 349 346 341 343 341 340 337 341 342 342 342 342 340 340 338 338 336 334 333 331 326 323 323 323 323 323 324 326 328 331 332 331 330
336 346 346 351 350 350 349 346 353 351 350 346 342 346 339 342 342 342 342 342 343 342 341 340 338 337 337 335 335 331 327 324 323 324 324 322 320 317 317 319 321 323 327
348 338 346 348 349 350 348 349 350 352 350 350 343 342 337 342 341 341 343 343 341 341 340 339 339 338 338 336 332 328 327 326 327 326 324 320 318 318 312 310 312 317 322
347 346 338 339 348 349 350 350 350 350 349 351 351 344 341 338 341 341 342 340 342 340 341 340 340 339 337 337 336 330 329 329 331 328 326 326 327 327 314 307 308 309 315
348 348 347 338 336 347 348 350 349 348 346 352 350 346 345 341 341 343 342 342 341 339 340 340 338 338 339 336 336 331 331 332 332 330 329 328 327 327 313 307 307 308 309
349 349 348 348 341 337 339 341 342 345 347 349 346 343 345 342 345 344 344 342 341 339 341 340 339 339 338 336 335 333 331 332 332 330 329 327 325 320 312 312 307 307 308
350 349 348 349 349 344 337 338 344 342 346 346 345 342 343 344 346 345 345 344 341 339 341 339 338 338 338 336 333 332 332 331 331 327 326 324 318 314 317 318 319 318 316
350 349 350 349 350 348 347 348 346 345 348 346 345 343 342 343 342 345 345 344 341 340 337 334 334 335 335 334 333 332 331 330 329 326 319 314 313 316 318 317 316 316 317
352 351 351 351 351 352 352 351 351 347 348 348 342 339 339 342 342 342 343 342 340 335 335 334 334 334 332 331 330 328 325 321 317 315 313 314 316 317 319 318 318 317 316
347 351 354 354 354 352 353 353 352 350 349 346 343 335 336 341 339 340 344 343 340 336 334 332 332 332 327 322 320 319 319 318 316 315 316 317 318 318 318 318 317 317 317
348 352 354 354 353 354 354 354 351 350 344 342 343 338 335 339 339 344 345 340 340 336 335 334 333 330 322 320 319 319 319 317 315 315 317 316 316 317 317 319 320 320 320
350 353 354 354 351 350 353 354 354 344 334 335 340 338 335 338 342 345 342 340 337 336 335 334 325 320 318 320 319 318 316 313 316 317 321 321 321 321 320 320 319 319 320
347 351 352 350 348 349 352 355 352 347 338 337 336 334 335 338 343 345 340 338 337 336 335 324 321 318 318 317 316 313 317 319 320 322 321 321 321 319 317 317 317 317 317
339 340 340 341 345 352 357 356 354 349 342 342 340 341 338 343 344 340 338 337 335 334 329 321 317 316 315 310 315 316 317 318 318 319 318 319 318 316 315 315 315 315 315
340 340 341 342 345 350 355 357 353 351 348 348 347 341 342 343 343 339 335 334 334 328 321 314 314 311 313 313 317 319 319 318 317 317 317 314 314 313 312 311 311 310 311
340 342 344 345 347 350 352 355 354 353 352 351 348 341 343 344 341 338 332 324 323 315 308 310 310 313 314 316 317 317 318 318 316 314 314 313 313 312 311 310 309 310 312
339 340 343 348 353 356 357 356 356 355 353 350 344 344 344 342 340 336 325 321 312 306 306 306 312 313 314 312 314 316 317 317 315 314 314 312 312 311 310 311 310 315 319
340 345 351 354 358 358 361 359 360 358 352 346 344 344 344 341 336 325 322 311 307 308 310 311 313 313 314 313 310 310 314 314 313 312 313 313 312 311 310 312 315 318 320
346 353 357 359 360 363 363 363 361 357 350 345 344 344 338 332 323 322 312 308 311 312 312 312 314 315 314 314 313 305 307 309 308 311 312 314 312 311 310 313 315 319 321
352 358 360 361 362 360 359 358 356 351 348 345 343 337 333 328 322 314 309 309 314 314 313 312 313 317 315 314 313 310 302 307 306 308 312 310 312 310 310 312 316 320 321
357 361 363 361 360 358 357 354 353 351 348 344 338 336 334 325 316 308 308 312 315 315 315 313 313 317 316 315 314 310 302 306 307 309 311 310 312 310 310 312 316 320 321
362 364 363 361 359 357 356 354 352 350 345 341 338 336 334 319 309 307 310 314 315 315 314 312 313 317 317 314 314 311 302 307 306 308 312 310 311 312 310 312 317 320 321
365 365 361 359 358 356 355 353 351 348 343 338 337 335 321 312 307 309 314 314 314 314 313 311 314 315 317 314 314 312 302 305 306 307 312 310 312 313 311 311 317 321 320
Wind_Speed
7 9 9 9 8 5 6 7 6 8 9 12 11 7 4 7 9 9 8 4 2 3 4 5 9 8 7 8 8 8 8 8 9 9 8 8 8 9 9 10 10 10 13
4 4 3 4 5 6 6 6 6 8 12 10 14 7 5 7 9 7 4 2 2 5 5 7 10 9 8 8 8 9 10 10 11 11 10 10 10 10 11 11 11 11 11
8 5 3 2 2 2 5 12 8 7 11 15 12 13 14 10 4 7 6 6 10 9 7 10 10 8 7 8 8 8 9 10 11 12 13 14 14 15 14 15 15 15 14
9 9 6 4 1 4 9 11 6 9 15 19 14 14 9 9 1 6 6 9 10 11 10 13 11 8 10 9 9 11 10 10 10 10 12 13 14 15 17 18 18 19 18
5 12 9 4 4 4 12 9 7 11 14 15 11 11 8 4 3 4 9 12 10 12 12 12 11 10 11 7 9 9 9 8 8 10 11 11 12 14 16 18 19 20 21
4 11 15 10 8 5 6 6 10 12 15 13 11 11 6 3 5 10 7 13 9 13 14 11 13 14 10 9 6 8 5 3 6 9 8 10 14 18 22 21 20 20 20
7 6 13 16 13 11 10 9 10 13 13 14 14 14 5 3 6 13 10 12 10 16 17 15 15 11 11 11 9 8 7 7 10 11 11 14 18 22 24 20 21 20 20
10 10 11 9 17 16 13 13 15 16 15 13 13 13 8 7 7 14 11 12 17 18 17 9 9 12 14 11 10 11 10 12 14 15 17 20 22 25 25 18 18 19 18
12 11 11 9 11 14 15 15 16 16 15 14 14 15 11 6 18 9 7 10 17 18 17 9 10 10 11 11 9 11 13 14 16 19 21 24 25 26 19 14 15 16 16
16 13 13 13 13 13 14 14 14 15 16 15 15 17 19 18 17 9 6 11 18 14 8 9 8 8 9 7 10 14 14 18 17 18 22 25 26 21 13 10 9 9 10
14 15 18 15 13 10 10 11 12 13 12 12 14 14 17 16 14 15 17 22 20 8 5 7 5 5 6 6 9 12 15 13 20 22 27 26 22 16 15 14 14 13 12
16 19 19 17 17 18 16 14 13 12 11 9 11 11 16 12 14 16 17 19 15 10 7 7 4 2 6 10 10 13 15 17 20 20 21 18 16 17 17 19 20 22 21
23 19 16 16 17 17 18 17 14 13 13 12 15 11 18 12 14 17 15 13 10 7 7 5 4 10 11 8 9 7 12 16 18 22 20 19 19 19 20 21 22 24 26
25 21 18 19 19 15 16 16 15 13 17 18 18 11 18 11 16 14 11 10 3 3 3 7 9 12 15 11 10 13 16 20 22 20 18 20 22 24 27 28 29 32 32
26 24 22 23 22 20 17 12 10 8 25 26 22 15 14 18 17 9 7 3 1 3 3 7 7 13 13 11 14 18 24 24 20 19 18 17 24 27 28 29 31 32 29
27 27 27 28 28 25 21 15 12 16 27 27 33 36 24 22 12 8 6 3 3 3 1 5 10 10 14 17 21 22 18 17 17 15 19 23 26 29 26 26 22 22 24
29 28 27 27 25 22 19 18 19 19 29 33 22 14 13 10 8 1 4 5 6 5 7 6 8 12 17 17 15 14 15 15 12 14 19 23 28 23 19 22 25 26 26
28 27 26 26 24 24 24 25 22 25 23 24 22 18 5 7 4 1 4 6 9 11 12 9 9 11 12 15 17 17 17 16 13 15 20 19 13 17 22 19 17 18 22
26 25 25 24 24 23 23 23 19 19 19 16 8 13 7 5 1 1 5 8 10 10 7 4 7 13 20 21 21 20 20 21 20 24 17 11 14 17 22 15 14 19 19
21 20 19 19 18 16 16 15 14 11 15 2 5 4 0 1 1 3 7 9 8 6 7 8 13 20 28 32 30 29 27 27 28 25 15 13 16 19 21 17 18 14 12
18 18 18 17 12 10 14 11 9 10 7 3 6 4 6 2 2 4 8 7 8 10 14 16 21 24 29 34 39 34 32 32 32 38 17 16 18 19 21 19 18 14 15
17 17 15 11 7 10 9 9 7 4 3 7 6 9 4 4 3 5 6 10 13 13 17 19 20 26 28 31 33 36 33 36 38 41 28 15 20 21 22 20 18 15 16
15 14 10 8 10 8 7 6 3 2 6 7 7 6 6 4 4 6 9 10 11 12 13 15 20 21 25 29 31 35 34 29 33 37 33 24 18 22 22 19 14 15 18
15 10 10 11 9 7 7 6 4 6 8 10 7 4 1 3 3 7 9 10 9 11 12 11 15 16 20 25 29 33 34 28 31 35 33 29 15 21 24 19 15 17 18
13 12 13 11 9 8 8 5 6 7 10 9 7 4 1 2 5 8 10 11 9 8 10 11 12 15 17 22 26 30 38 37 36 37 36 28 26 14 26 24 19 21 21
15 14 13 11 9 10 8 6 7 13 13 11 10 6 5 5 9 12 12 10 8 9 11 14 15 14 14 20 23 28 35 38 35 30 38 32 28 19 13 28 25 22 22
Wind_Direction
104 122 100 93 106 48 40 48 50 43 25 19 11 17 11 4 351 348 345 319 300 331 332 334 333 321 304 292 280 272 273 261 260 259 260 256 255 258 258 255 254 254 247
148 128 78 118 111 44 23 359 18 12 20 19 25 18 352 308 317 314 332 311 317 321 292 309 318 303 313 293 278 268 269 264 261 262 263 264 264 262 260 259 256 254 252
203 205 215 184 198 332 337 356 311 327 350 3 9 16 8 350 233 264 299 306 314 323 298 298 295 286 302 295 277 269 265 263 262 264 266 267 267 268 263 257 255 255 253
199 215 213 253 209 324 317 312 302 329 349 349 348 7 359 13 165 247 270 270 286 299 291 304 301 296 313 298 278 278 281 279 274 276 276 275 273 270 267 265 259 256 253
224 217 210 211 197 283 323 312 335 326 338 333 348 359 344 355 24 271 271 282 285 285 275 298 305 302 307 322 318 299 294 296 307 311 303 297 299 299 288 273 266 259 254
260 233 228 239 248 256 323 306 305 314 326 329 331 345 350 289 30 346 316 270 286 312 302 274 307 298 299 308 332 333 309 301 346 319 314 319 321 321 313 293 274 262 255
270 328 237 247 255 262 262 277 294 300 316 329 333 337 319 271 254 347 360 331 316 329 334 298 304 285 305 302 321 333 323 310 313 324 310 313 320 325 323 295 278 265 254
278 310 319 284 250 262 272 281 291 297 311 316 324 335 335 324 284 326 288 327 331 331 321 301 305 282 282 291 278 297 311 307 301 303 307 309 312 319 320 295 277 267 255
268 292 311 312 286 270 276 280 288 291 296 309 321 334 328 293 314 329 312 326 336 335 335 327 304 298 288 287 263 291 303 286 279 290 296 305 309 314 308 300 288 278 270
255 277 297 309 311 304 298 299 294 290 297 311 326 335 336 324 318 314 309 334 341 341 339 323 293 294 282 266 253 270 298 303 289 291 301 301 304 306 291 282 285 285 283
246 269 279 303 310 315 312 317 309 300 296 314 332 339 339 338 345 329 326 337 354 29 9 354 310 303 320 319 305 271 296 293 293 294 298 299 294 280 274 274 279 280 280
251 261 274 285 301 301 303 312 314 312 317 330 336 344 345 345 341 335 330 338 2 32 27 21 340 22 5 332 319 305 301 300 302 302 298 296 288 284 273 276 280 280 280
248 255 263 282 290 305 302 297 311 325 324 319 321 324 350 346 339 333 336 344 358 56 39 52 75 356 350 327 319 296 298 307 307 305 290 290 289 285 280 276 276 276 276
246 261 267 272 279 300 313 291 304 333 343 321 311 328 340 340 339 333 330 335 3 76 116 19 335 329 330 322 310 312 306 305 300 295 286 287 285 284 283 281 280 278 275
246 254 262 270 279 291 300 284 294 317 299 296 304 319 331 339 337 336 336 357 4 17 356 350 331 325 330 323 316 308 305 309 300 292 291 285 291 292 288 284 286 276 275
253 258 261 269 278 285 287 282 256 254 290 301 291 293 307 329 330 338 354 355 354 11 330 314 316 314 313 313 312 311 318 314 301 306 303 300 299 304 301 288 279 269 266
260 264 268 274 275 282 294 283 259 255 275 285 277 338 352 319 343 346 0 357 356 356 338 312 316 319 322 329 332 326 325 327 324 310 304 301 305 307 295 291 283 276 269
262 267 271 273 280 287 290 285 277 275 281 282 281 266 317 304 322 11 352 353 341 335 324 320 326 347 2 2 4 9 5 355 347 329 315 325 320 313 316 309 305 297 277
260 266 271 275 281 285 284 281 284 292 298 294 289 255 263 309 280 30 347 344 339 337 352 10 43 27 29 20 17 15 11 15 12 346 344 332 337 329 328 328 326 318 293
262 266 273 281 286 294 290 289 294 298 303 288 149 173 250 120 91 344 348 346 1 30 61 63 57 44 37 33 27 20 17 18 18 9 359 350 347 344 356 348 345 328 315
264 272 280 287 296 294 283 285 277 289 322 143 127 125 129 192 23 9 351 24 63 78 73 71 57 48 38 31 27 25 23 22 22 15 1 360 2 357 1 359 352 348 349
268 276 281 297 306 275 273 277 280 282 354 130 130 142 150 97 46 2 31 71 85 74 67 56 55 46 39 32 25 24 19 19 18 13 10 18 12 11 9 6 356 357 3
270 276 284 275 263 262 266 272 263 178 143 125 129 138 118 57 20 24 69 92 91 74 57 48 46 44 37 30 23 22 22 25 19 13 8 20 19 23 21 11 10 12 12
265 268 252 247 241 238 246 248 202 187 151 134 136 132 84 42 37 61 83 108 89 70 55 47 39 42 36 30 24 20 19 28 30 23 14 18 21 28 31 31 29 32 29
245 233 234 231 221 214 206 204 187 183 154 156 174 166 101 56 74 85 105 103 90 61 53 49 44 43 34 27 19 13 22 28 30 24 25 24 21 39 37 43 53 47 46
230 217 220 213 212 195 187 177 187 166 163 169 174 166 145 108 96 112 117 107 97 79 61 44 56 47 38 27 22 20 24 32 33 31 30 33 37 37 40 49 58 65 60